Weather History for Abbotsford, BC

Change the Weather History Date:

Sunday, October 2, 2011

  Actual Average Record
Temperature  
Mean Temperature 55 °F -  
Max Temperature 62 °F 58 °F 73 °F (2004)
Min Temperature 48 °F 41 °F 39 °F (2006)
Degree Days  
Heating Degree Days 10    
Growing Degree Days 5 (Base 50)    
Moisture  
Dew Point 49 °F    
Average Humidity 79    
Maximum Humidity 94    
Minimum Humidity 52    
Precipitation  
Precipitation 0.24 in 0.21 in - ()
Sea Level Pressure  
Sea Level Pressure 29.94 in    
Wind  
Wind Speed 4 mph ()    
Max Wind Speed 14 mph    
Max Gust Speed -    
Visibility 8.9 miles    
Events Fog , Rain    
Averages and records for this station are not official NWS values.
T = Trace of Precipitation, MM = Missing Value Source: Averaged Metar Reports

Daily Weather History Graph

Daily Weather History Graph

Search for Another Location

Airport:

Trip Planner

Search our weather history database for the weather conditions in past years. The results will help you decide how hot, cold, wet, or windy it might be!

Date:

Astronomy

Oct. 02, 2011 Rise Set
Actual Time 7:10 AM PDT 6:46 PM PDT
Civil Twilight 6:38 AM PDT 7:17 PM PDT
Nautical Twilight 6:02 AM PDT 7:54 PM PDT
Astronomical Twilight 5:24 AM PDT 8:32 PM PDT
Moon 1:52 PM PDT (10/2) 10:20 PM PDT (10/2)
Length of Visible Light 12h 39m
Length of Day
11h 36m
Waxing Crescent, 36% of the Moon is Illuminated
Oct 2
Waxing Crescent
Oct 3
First Quarter
Oct 11
Full
Oct 19
Last Quarter
Oct 26
New

Hourly Weather History & Observations

Time (PDT) Temp. Dew Point Humidity Pressure Visibility Wind Dir Wind Speed Gust Speed Precip Events Conditions
12:00 AM 51.8 °F 50.0 °F 94% 29.99 in 10.0 mi North 4.6 mph - N/A   Mostly Cloudy
1:00 AM 51.8 °F 50.0 °F 94% 29.99 in 10.0 mi SE 2.3 mph - N/A   Mostly Cloudy
2:00 AM 51.8 °F 50.0 °F 94% 29.99 in 10.0 mi North 2.3 mph - N/A   Mostly Cloudy
3:00 AM 51.8 °F 50.0 °F 94% 29.99 in 10.0 mi NNE 3.5 mph - N/A   Mostly Cloudy
4:00 AM 51.8 °F 50.0 °F 94% 29.99 in 10.0 mi NE 3.5 mph - N/A   Mostly Cloudy
5:00 AM 51 °F 49 °F 92% 29.98 in 10 mi NE 3.5 mph - -   Mostly Cloudy
5:00 AM 51.8 °F 50.0 °F 94% 29.98 in 10.0 mi NE 3.5 mph - N/A   Mostly Cloudy
6:00 AM 50.0 °F 48.2 °F 94% 29.97 in 10.0 mi NE 3.5 mph - N/A   Mostly Cloudy
6:30 AM - - N/A% - 2.0 mi NE 2.3 mph - N/A   Scattered Clouds
7:00 AM 50.0 °F 48.2 °F 94% 29.97 in 20.0 mi NE 2.3 mph - N/A Fog Shallow Fog
8:00 AM 50.0 °F 48.2 °F 94% 29.98 in 25.0 mi ENE 2.3 mph - N/A Fog Shallow Fog
9:00 AM 53.6 °F 50.0 °F 88% 29.98 in 25.0 mi NE 4.6 mph - N/A   Scattered Clouds
10:00 AM 55.4 °F 48.2 °F 77% 29.97 in 25.0 mi ENE 4.6 mph - N/A   Mostly Cloudy
11:00 AM 58 °F 49 °F 62% 29.96 in 28 mi East 8.1 mph - -   Scattered Clouds
11:00 AM 57.2 °F 48.2 °F 72% 29.96 in 30.0 mi East 8.1 mph - N/A   Mostly Cloudy
12:00 PM 59.0 °F 50.0 °F 72% 29.94 in 30.0 mi East 2.3 mph - N/A   Mostly Cloudy
1:00 PM 60.8 °F 48.2 °F 63% 29.94 in 30.0 mi North 2.3 mph - N/A   Mostly Cloudy
2:00 PM 60.8 °F 48.2 °F 63% 29.92 in 30.0 mi ESE 3.5 mph - N/A   Mostly Cloudy
3:00 PM 62.6 °F 48.2 °F 59% 29.91 in 30.0 mi NNE 3.5 mph - N/A   Overcast
4:00 PM 60.8 °F 48.2 °F 63% 29.90 in 30.0 mi North 6.9 mph - N/A   Overcast
5:00 PM 61 °F 48 °F 52% 29.88 in 28 mi NNE 3.5 mph - -   Overcast
5:00 PM 60.8 °F 48.2 °F 63% 29.88 in 30.0 mi NNE 3.5 mph - N/A   Overcast
6:00 PM 60.8 °F 48.2 °F 63% 29.88 in 30.0 mi NE 2.3 mph - N/A   Overcast
7:00 PM 59.0 °F 48.2 °F 67% 29.86 in 15.0 mi NNE 3.5 mph - N/A Rain Light Rain Showers
8:00 PM 57.2 °F 50.0 °F 77% 29.87 in 8.0 mi NE 6.9 mph - N/A Rain Light Rain
9:00 PM 55.4 °F 51.8 °F 88% 29.89 in 6.0 mi South 4.6 mph - N/A Rain Rain
9:10 PM - - N/A% - 2.5 mi SE 13.8 mph - N/A Rain Rain
9:18 PM - - N/A% - 3.0 mi ENE 11.5 mph - N/A Rain Rain
9:28 PM - - N/A% - 7.0 mi ENE 10.4 mph - N/A Rain Light Rain
10:00 PM 55.4 °F 51.8 °F 88% 29.87 in 10.0 mi NE 11.5 mph - N/A Rain Light Rain
11:00 PM 54 °F 52 °F 90% 29.87 in 7 mi ENE 5.8 mph - - Rain Light Rain